KUIPER-00297

导读

KUIPER-00297(NORAD编号68596)是亚马逊柯伊伯(Kuiper)项目的卫星,该项目计划部署超3200颗卫星,打造全球低轨宽带互联网星座,直接对标SpaceX星链(Starlink)。作为项目组网卫星之一,它运行在近地轨道,依托激光互联技术可实现高速数据传输,单链路能支持100Gbps传输速率。该卫星是亚马逊Kuiper星座批量部署阶段的组成部分,助力项目实现全球覆盖,为用户提供高速卫星互联网接入服务,用户终端可支持最高400Mbps的网速,推动卫星互联网市场竞争。

基本信息
目录编号:
68596
目录名称:
KUIPER-00297
国际标识:
2026-072Z
轨道中心:
EARTH
卫星名称:
KUIPER-00297
卫星全名:
KUIPER-00297
卫星状态:
在轨 (已飞行164 天)
发射日期:
2026-04-04 UTC
国别 :
美国 (US)
星等 :
--
该卫星已列入 空间交会检测服务 Space Conjunction Data Service (SCDS) ,当前飞行风险评估等级: 无高风险
轨道信息
数据来源 国际轨道数据 AOE轨道数据
星历时间 2026-09-15T10:45:38+0800
20小时前
查看轨道信息
2026-09-15T23:00:00+0800
8小时前
查看轨道信息
半长轴 7007.676km 7007.673km
偏心率 0.0001364 0.0001394
轨道倾角 51.899° 51.897°
近地点辐角 99.260° 130.863°
升交点赤经 150.465° 148.216°
平近点角 260.852° 67.936°
近地点 628.583km 628.559km
远地点 630.495km 630.513km
周期 97.302分钟 97.302分钟
每日圈数 14.799322 14.799329
详细信息
使用方式:
暂无
2D轨道图
3D轨道图
轨道高度分析图
轨道倾角分析图
轨道综合分析图
查看轨道综合分析图
与全量物体交会距离演化趋势 订阅飞行安全评估服务
与全量物体交会风险概率演化趋势 订阅飞行安全评估服务